Oak Ridge, TN

7:41 AM EST on February 20, 2017 (GMT -0500)
Oak Ridge

Weather History for KOQT - January, 2014

Change the Weather History Date:

Saturday, January 4, 2014

  Actual Average (KTYS) Record (KTYS)
Temperature  
Mean Temperature 31 °F -  
Max Temperature 46 °F 48 °F 72 °F (1950)
Min Temperature 16 °F 30 °F -4 °F (1879)
Degree Days  
Heating Degree Days 34    
Moisture  
Dew Point 20 °F    
Average Humidity 65    
Maximum Humidity 85    
Minimum Humidity 31    
Precipitation  
Precipitation 0.00 in - - ()
Sea Level Pressure  
Sea Level Pressure 30.34 in    
Wind  
Wind Speed 2 mph (SW)    
Max Wind Speed 9 mph    
Max Gust Speed 16 mph    
Visibility 10 miles    
Events      
Averages and records for this station are not official NWS values.
T = Trace of Precipitation, MM = Missing Value Source: NWS Daily Summary

Daily Weather History Graph

Daily Weather History Graph

Search for Another Location

Airport or City:

Trip Planner

Search our weather history database for the weather conditions in past years. The results will help you decide how hot, cold, wet, or windy it might be!

Date:

Astronomy

Jan. 04, 2014 Rise Set
Actual Time 7:47 AM EST 5:36 PM EST
Civil Twilight 7:19 AM EST 6:04 PM EST
Nautical Twilight 6:47 AM EST 6:36 PM EST
Astronomical Twilight 6:16 AM EST 7:07 PM EST
Moon 10:00 AM EST (1/4) 9:46 PM EST (1/4)
Length of Visible Light 10h 44m
Length of Day
9h 48m
Waxing Crescent, 15% of the Moon is Illuminated
Jan 4
Waxing Crescent
Jan 7
First Quarter
Jan 15
Full
Jan 24
Last Quarter
Jan 30
New

Hourly Weather History & Observations

Time (EST) Temp. Windchill Dew Point Humidity Pressure Visibility Wind Dir Wind Speed Gust Speed Precip Events Conditions
12:53 AM 18.0 °F - 12.9 °F 81% 30.41 in 10.0 mi Calm Calm - N/A   Clear
1:53 AM 18.0 °F - 12.9 °F 81% 30.41 in 10.0 mi Calm Calm - N/A   Clear
2:53 AM 17.1 °F - 12.9 °F 84% 30.42 in 10.0 mi Calm Calm - N/A   Clear
3:53 AM 17.1 °F - 12.9 °F 84% 30.42 in 10.0 mi Calm Calm - N/A   Clear
4:53 AM 17.1 °F - 12.9 °F 84% 30.42 in 10.0 mi Calm Calm - N/A   Clear
5:53 AM 17.1 °F - 12.0 °F 81% 30.42 in 10.0 mi Calm Calm - N/A   Clear
6:53 AM 16.0 °F - 12.0 °F 84% 30.43 in 10.0 mi Calm Calm - N/A   Clear
7:53 AM 16.0 °F - 12.0 °F 84% 30.44 in 10.0 mi Calm Calm - N/A   Clear
8:53 AM 19.9 °F - 16.0 °F 85% 30.44 in 10.0 mi Calm Calm - N/A   Clear
9:53 AM 27.0 °F 23.0 °F 18.0 °F 69% 30.43 in 10.0 mi South 3.5 mph - N/A   Clear
10:53 AM 30.9 °F 26.2 °F 15.1 °F 52% 30.43 in 10.0 mi WSW 4.6 mph - N/A   Clear
11:53 AM 33.1 °F 28.7 °F 14.0 °F 46% 30.39 in 10.0 mi West 4.6 mph - N/A   Clear
12:53 PM 39.0 °F 32.8 °F 14.0 °F 36% 30.33 in 10.0 mi SSW 9.2 mph - N/A   Clear
1:53 PM 42.1 °F 36.6 °F 14.0 °F 32% 30.30 in 10.0 mi SSW 9.2 mph - N/A   Clear
2:53 PM 45.0 °F 40.1 °F 16.0 °F 31% 30.28 in 10.0 mi SW 9.2 mph 16.1 mph N/A   Clear
3:53 PM 46.0 °F 43.1 °F 19.9 °F 35% 30.27 in 10.0 mi Variable 5.8 mph - N/A   Clear
4:53 PM 46.0 °F 41.4 °F 25.0 °F 44% 30.25 in 10.0 mi South 9.2 mph - N/A   Clear
5:53 PM 44.1 °F 42.5 °F 28.0 °F 53% 30.25 in 10.0 mi Variable 3.5 mph - N/A   Clear
6:53 PM 43.0 °F 39.5 °F 30.9 °F 62% 30.24 in 10.0 mi SW 5.8 mph - N/A   Mostly Cloudy
7:53 PM 41.0 °F 38.0 °F 30.0 °F 65% 30.24 in 10.0 mi SW 4.6 mph - N/A   Overcast
8:53 PM 39.9 °F 36.7 °F 30.9 °F 70% 30.24 in 10.0 mi SW 4.6 mph - N/A   Overcast
9:53 PM 39.9 °F 37.8 °F 32.0 °F 73% 30.22 in 10.0 mi WSW 3.5 mph - N/A   Overcast
10:53 PM 39.9 °F 37.8 °F 32.0 °F 73% 30.19 in 10.0 mi Variable 3.5 mph - N/A   Overcast
11:53 PM 37.9 °F 33.5 °F 32.0 °F 79% 30.19 in 10.0 mi SSW 5.8 mph - N/A   Mostly Cloudy